Date String (YYYY-MM-DD hh:mm:ss) UTC,Instrument flags,Ambient pressure (hPa),Sample flow (lpm),Bypass flow (lpm),Sample temperature (°C),Ambient temperature (°C),ASC tube jacket temperature (°C),LED temperature (°C),Box temperature (°C),Sample RH (%),Span deviation,Mass concentration (μg/m³),Mass concentration (μg/m³),Mass concentration (μg/m³)
DateTimeUTC,F1_M11,P_M11,Q1_M11,Q2_M11,T1_M11,T2_M11,T3_M11,T4_M11,T5_M11,U1_M11,ZSPAN_M11,X2_M11,X0_M11,X1_M11
2022-07-19 16:00:00,,0827.6,4.99,0.00,29.4,27.4,00.0,38.0,31.2,26.0,0000.0,0005.87,0013.40,0003.99
2022-07-19 16:01:00,,0827.6,5.00,0.00,29.4,27.5,00.0,38.0,31.2,26.3,0000.0,0005.93,0013.98,0003.98
2022-07-19 16:02:00,,0827.6,5.00,0.00,29.4,27.7,00.0,38.0,31.2,26.3,0000.0,0005.97,0013.70,0003.97
2022-07-19 16:03:00,,0827.7,5.01,0.00,29.4,27.9,00.0,38.1,31.3,26.4,0000.0,0006.00,0014.33,0003.98
2022-07-19 16:04:00,,0827.7,5.00,0.00,29.4,27.9,00.0,38.0,31.3,26.4,0000.0,0005.98,0014.43,0003.98
2022-07-19 16:05:00,,0827.7,5.00,0.00,29.4,27.4,00.0,38.0,31.3,26.2,0000.0,0005.94,0015.10,0004.00
2022-07-19 16:06:00,,0827.7,4.99,0.00,29.4,27.1,00.0,38.0,31.2,26.5,0000.0,0005.95,0016.22,0004.01
2022-07-19 16:07:00,,0827.7,4.99,0.00,29.4,27.1,00.0,38.0,31.1,27.0,0000.0,0005.95,0017.48,0004.02
2022-07-19 16:08:00,,0827.7,5.00,0.00,29.3,27.3,00.0,38.0,31.1,26.5,0000.0,0005.91,0017.02,0004.03
2022-07-19 16:09:00,,0827.7,5.00,0.00,29.3,27.5,00.0,38.0,31.1,25.9,0000.0,0005.86,0016.97,0004.03
2022-07-19 16:10:00,,0827.6,4.99,0.00,29.3,27.7,00.0,38.0,31.2,26.5,0000.0,0005.84,0017.17,0004.04
2022-07-19 16:11:00,,0827.6,5.00,0.00,29.3,27.9,00.0,38.0,31.2,26.5,0000.0,0005.94,0017.59,0004.06
2022-07-19 16:12:00,,0827.6,5.00,0.00,29.4,28.1,00.0,38.0,31.3,25.9,0000.0,0006.02,0017.40,0004.08
2022-07-19 16:13:00,,0827.6,5.01,0.00,29.4,27.8,00.0,38.0,31.3,25.8,0000.0,0006.04,0017.32,0004.10
2022-07-19 16:14:00,,0827.6,4.99,0.00,29.4,27.2,00.0,37.9,31.3,25.8,0000.0,0006.04,0017.05,0004.10
2022-07-19 16:15:00,,0827.6,5.01,0.00,29.4,27.2,00.0,37.9,31.2,25.8,0000.0,0006.15,0016.82,0004.10
2022-07-19 16:16:00,,0827.6,5.00,0.00,29.3,27.3,00.0,38.0,31.1,25.5,0000.0,0006.19,0016.56,0004.10
2022-07-19 16:17:00,,0827.6,5.00,0.00,29.3,27.4,00.0,38.0,31.1,26.0,0000.0,0006.19,0015.61,0004.10
2022-07-19 16:18:00,,0827.7,5.00,0.00,29.3,27.6,00.0,38.0,31.1,26.6,0000.0,0006.09,0014.05,0004.09
2022-07-19 16:19:00,,0827.7,4.98,0.00,29.3,27.8,00.0,38.0,31.2,26.8,0000.0,0006.09,0013.20,0004.09
2022-07-19 16:20:00,,0827.6,5.00,0.00,29.4,27.8,00.0,38.0,31.3,26.2,0000.0,0006.10,0013.32,0004.09
2022-07-19 16:21:00,,0827.6,4.99,0.00,29.4,27.4,00.0,37.9,31.2,26.2,0000.0,0006.07,0012.96,0004.09
2022-07-19 16:22:00,,0827.6,5.00,0.00,29.3,27.1,00.0,37.9,31.2,25.2,0000.0,0006.08,0013.29,0004.08
2022-07-19 16:23:00,,0827.6,5.00,0.00,29.3,27.1,00.0,37.9,31.1,25.3,0000.0,0006.04,0013.23,0004.07
2022-07-19 16:24:00,,0827.6,5.00,0.00,29.3,27.3,00.0,37.9,31.1,25.6,0000.0,0005.97,0013.23,0004.06
2022-07-19 16:25:00,,0827.6,5.00,0.00,29.3,27.5,00.0,37.9,31.1,26.1,0000.0,0005.92,0013.97,0004.06
2022-07-19 16:26:00,,0827.6,5.00,0.00,29.3,27.7,00.0,37.9,31.1,25.2,0000.0,0005.89,0013.88,0004.06
2022-07-19 16:27:00,,0827.6,5.01,0.00,29.3,27.9,00.0,38.0,31.2,25.1,0000.0,0005.91,0014.81,0004.06
2022-07-19 16:28:00,,0827.6,5.00,0.00,29.3,27.6,00.0,37.9,31.2,26.6,0000.0,0005.94,0015.69,0004.06
2022-07-19 16:29:00,,0827.7,4.99,0.00,29.3,27.1,00.0,37.9,31.2,25.0,0000.0,0005.96,0015.75,0004.06
2022-07-19 16:30:00,,0827.7,5.00,0.00,29.3,27.1,00.0,37.9,31.1,27.0,0000.0,0005.98,0016.29,0004.06
2022-07-19 16:31:00,,0827.7,5.01,0.00,29.2,27.2,00.0,37.9,31.1,27.4,0000.0,0006.05,0017.00,0004.08
2022-07-19 16:32:00,,0827.6,5.00,0.00,29.2,27.4,00.0,37.9,31.0,27.9,0000.0,0006.10,0017.13,0004.08
2022-07-19 16:33:00,,0827.7,5.00,0.00,29.2,27.6,00.0,37.9,31.1,27.6,0000.0,0006.09,0016.86,0004.10
2022-07-19 16:34:00,,0827.7,4.99,0.00,29.2,27.8,00.0,37.9,31.2,25.4,0000.0,0006.02,0016.55,0004.12
2022-07-19 16:35:00,,0827.7,5.01,0.00,29.3,27.9,00.0,37.9,31.2,25.6,0000.0,0006.03,0016.48,0004.13
2022-07-19 16:36:00,,0827.7,5.00,0.00,29.3,27.7,00.0,37.9,31.3,25.7,0000.0,0006.09,0015.81,0004.14
2022-07-19 16:37:00,,0827.7,4.99,0.00,29.3,27.2,00.0,37.8,31.2,24.9,0000.0,0006.07,0015.40,0004.14
2022-07-19 16:38:00,,0827.6,5.00,0.00,29.3,27.1,00.0,37.8,31.1,26.0,0000.0,0006.03,0015.41,0004.14
2022-07-19 16:39:00,,0827.6,5.00,0.00,29.2,27.2,00.0,37.9,31.1,24.6,0000.0,0005.98,0014.20,0004.14
2022-07-19 16:40:00,,0827.6,5.00,0.00,29.2,27.4,00.0,37.9,31.0,24.5,0000.0,0005.91,0013.97,0004.13
2022-07-19 16:41:00,,0827.6,4.99,0.00,29.2,27.6,00.0,37.9,31.1,24.3,0000.0,0005.90,0014.04,0004.12
2022-07-19 16:42:00,,0827.7,5.00,0.00,29.2,27.8,00.0,37.9,31.2,24.1,0000.0,0005.86,0013.43,0004.11
2022-07-19 16:43:00,,0827.7,5.00,0.00,29.3,27.8,00.0,37.9,31.2,24.2,0000.0,0005.78,0013.20,0004.10
2022-07-19 16:44:00,,0827.7,5.01,0.00,29.3,27.3,00.0,37.8,31.2,24.1,0000.0,0005.76,0013.53,0004.09
2022-07-19 16:45:00,,0827.7,4.99,0.00,29.2,27.0,00.0,37.8,31.1,24.1,0000.0,0005.76,0014.03,0004.05
2022-07-19 16:46:00,,0827.7,5.00,0.00,29.2,27.1,00.0,37.8,31.0,24.4,0000.0,0005.81,0014.35,0004.04
2022-07-19 16:47:00,,0827.7,5.00,0.00,29.2,27.2,00.0,37.8,31.0,24.7,0000.0,0005.79,0014.72,0004.02
2022-07-19 16:48:00,,0827.7,5.00,0.00,29.2,27.4,00.0,37.9,31.0,25.1,0000.0,0005.82,0015.38,0004.01
2022-07-19 16:49:00,,0827.7,5.00,0.00,29.2,27.6,00.0,37.9,31.1,24.3,0000.0,0005.80,0015.46,0004.01
2022-07-19 16:50:00,,0827.7,5.00,0.00,29.2,27.9,00.0,37.9,31.2,24.3,0000.0,0005.79,0015.71,0004.02
2022-07-19 16:51:00,,0827.7,5.00,0.00,29.3,27.8,00.0,37.9,31.2,23.8,0000.0,0005.81,0015.73,0004.03
2022-07-19 16:52:00,,0827.7,5.00,0.00,29.3,27.3,00.0,37.8,31.2,24.1,0000.0,0005.81,0015.66,0004.03
2022-07-19 16:53:00,,0827.7,5.00,0.00,29.2,27.1,00.0,37.8,31.1,24.2,0000.0,0005.82,0016.39,0004.03
2022-07-19 16:54:00,,0827.6,5.00,0.00,29.2,27.1,00.0,37.8,31.1,24.5,0000.0,0005.86,0016.75,0004.03
2022-07-19 16:55:00,,0827.7,5.00,0.00,29.2,27.3,00.0,37.8,31.0,23.9,0000.0,0005.91,0016.91,0004.03
2022-07-19 16:56:00,,0827.7,5.00,0.00,29.2,27.5,00.0,37.8,31.0,24.2,0000.0,0005.92,0018.30,0004.03
2022-07-19 16:57:00,,0827.7,5.00,0.00,29.2,27.7,00.0,37.8,31.1,24.1,0000.0,0005.88,0018.55,0004.05
2022-07-19 16:58:00,,0827.7,5.00,0.00,29.2,27.6,00.0,37.8,31.1,23.9,0000.0,0005.87,0018.18,0004.06
2022-07-19 16:59:00,,0827.8,5.01,0.00,29.2,27.1,00.0,37.8,31.1,24.4,0000.0,0005.86,0017.48,0004.07
